Location: Cabo di Oristano
(39.8500°N, 8.4333°E)
Time: 01:26:32
(UTC+00:00)

Daily predictions for brighter satellites

Satellite Brightness Start Highest point End
(mag) Time Altitude Azimuth Time Altitude Azimuth Time Altitude Azimuth
ATLAS 3B R/B 4.1 03:10:02 31° NNE 03:10:02 31° NNE 03:13:27 10° NNE
USA 267 3.2 03:55:13 10° NE 04:01:32 67° NNW 04:01:32 67° NNW
Cosmos 2333 Rocket 3.8 03:57:51 15° N 04:01:51 32° ENE 04:06:56 10° ESE
NOSS 3-1 (C) 4.0 04:04:11 39° N 04:04:11 39° N 04:08:06 10° NNE
Cosmos 2360 Rocket 2.9 04:04:01 30° N 04:06:33 50° ENE 04:12:02 10° SE
USA 229 DEB 4.4 04:03:14 15° S 04:08:07 46° ESE 04:14:20 10° NE
USA 229 4.4 04:03:08 14° S 04:08:14 46° ESE 04:14:26 10° NE
Cosmos 2219 Rocket 4.2 04:03:56 10° N 04:08:32 25° NE 04:13:07 10° ESE
Meteor 2-21 4.2 04:11:46 78° WSW 04:11:59 79° W 04:18:03 10° N
Cosmos 2322 Rocket 2.1 04:15:29 69° NNW 04:16:14 89° ENE 04:21:54 10° SSE
CZ-2C R/B 3.6 04:15:25 10° NNE 04:19:14 49° E 04:20:10 40° SE
Nadezhda 4 Rocket 4.4 04:13:36 10° S 04:19:49 64° E 04:26:05 10° NNE
FALCON 9 R/B 2.6 04:23:47 45° SSW 04:24:57 54° SSE 04:36:57 10° E
Cosmos 2142 Rocket 4.4 04:20:26 10° NNW 04:26:44 68° W 04:32:55 10° S
Meteor 2-21 Rocket 4.3 04:20:50 10° S 04:26:56 82° W 04:33:01 10° N
SL-16 R/B 2.7 04:29:30 42° SW 04:29:30 42° SW 04:33:39 10° S
Cosmos 1833 4.0 04:30:05 36° SSW 04:32:29 80° WNW 04:38:08 10° NNE
Cosmos 676 Rocket 3.9 04:30:20 34° NNW 04:32:41 85° ENE 04:37:51 10° SSE
Cosmos 1420 Rocket 4.5 04:34:40 43° NNW 04:34:40 43° NNW 04:38:46 10° N
COSMO-SKYMED 1 2.9 04:29:31 10° SSE 04:33:48 66° ENE 04:37:12 16° N
USA 234 3.6 04:27:51 10° ESE 04:34:16 59° NE 04:38:22 24° NW
NOSS 3-1 (A) 2.9 04:34:14 60° W 04:34:55 68° NW 04:40:46 10° NNE
Okean 2 Rocket 3.0 04:31:48 10° S 04:36:18 87° W 04:40:50 10° N
Cosmos 1939 Rocket 3.1 04:36:25 10° NNE 04:40:16 63° E 04:44:04 10° S
H-2A R/B 3.2 04:35:42 10° NNE 04:40:57 46° E 04:46:06 10° S
Cosmos 2292 Rocket 3.9 04:39:27 10° S 04:45:38 79° W 04:50:17 10° N
DELTA 2 R/B (1) 3.8 04:45:12 43° WSW 04:46:43 58° SSW 04:52:12 10° ESE
Cosmos 2180 Rocket 4.5 04:41:48 10° NNW 04:47:53 59° W 04:54:00 10° S
Meteor 2-16 Rocket 4.4 04:46:44 10° SSW 04:52:45 60° W 04:58:49 10° N
ATLAS 3B R/B 4.0 04:57:18 21° NW 04:58:12 21° NNW 05:03:32 10° NNE
Cosmos 1536 Rocket 3.4 04:56:11 10° NNW 05:00:35 70° W 05:04:58 10° S
Cosmos 44 Rocket 3.6 05:02:17 32° WNW 05:04:08 48° WSW 05:09:01 10° S
DMSP B5D2-2 4.4 05:00:03 10° SSW 05:04:58 40° W 05:09:31 12° NNW
USA 305 4.1 05:02:52 10° SSW 05:06:25 37° SE 05:09:57 10° ENE
Cosmos 192 4.2 05:08:22 10° SSW 05:13:15 67° WNW 05:18:11 10° NNE
Meteor 2-10 Rocket 4.1 05:08:08 10° SW 05:13:32 42° WNW 05:19:03 10° N
USA 276 4.5 05:13:29 11° N 05:13:33 11° N 05:14:15 10° NNE
Cosmos 1340 Rocket 3.6 05:15:25 29° W 05:15:38 29° W 05:19:10 10° SSW
Cosmos 1892 2.5 05:13:46 10° N 05:17:34 84° W 05:21:21 10° S
Timation 1 Rocket 4.3 05:14:04 10° SSW 05:20:02 82° WNW 05:26:03 10° NNE
SKYMED 2 4.2 05:18:01 10° SSW 05:21:58 34° W 05:25:50 11° NNW
SL-27 R/B 2.8 05:20:44 12° SW 05:23:33 39° WNW 05:26:50 10° N
CZ-4C R/B 4.1 05:22:01 10° SSW 05:25:57 34° W 05:29:55 10° NNW
Cosmos 2026 Rocket 3.9 05:19:59 10° S 05:26:05 78° W 05:32:10 10° N
CZ-2D R/B 3.6 05:23:04 10° NNE 05:26:48 65° ESE 05:30:31 10° S
Meteor 1-31 Rocket 2.6 05:25:43 10° N 05:29:34 70° WNW 05:33:24 10° SSW
Cosmos 1092 Rocket 4.0 05:23:49 10° SSW 05:30:06 66° W 05:36:24 10° N
CZ-2C R/B 2.3 05:29:37 15° SW 05:31:11 22° SSW 05:33:37 10° SE
Okean 1 Rocket 3.4 05:27:49 10° SSW 05:32:00 42° WNW 05:36:16 10° N
CZ-4B R/B 4.1 05:30:14 10° N 05:34:30 60° WNW 05:38:50 10° SSW
Cosmos 1455 2.1 05:35:16 10° SSW 05:38:53 60° W 05:42:34 10° N
Cosmos 1825 2.0 05:36:18 10° NNW 05:39:59 73° W 05:43:39 10° S
USA 306 3.0 05:36:18 10° SW 05:40:13 69° SE 05:44:10 10° NE
Cosmos 1452 Rocket 4.0 05:35:55 10° SW 05:40:44 36° WNW 05:45:35 10° N
Cosmos 1850 Rocket 4.0 05:36:23 10° NNW 05:41:30 60° WSW 05:46:38 10° S
USA 267 4.3 05:38:40 10° NNE 05:43:56 27° NNW 05:48:54 11° WNW
Cosmos 2333 Rocket 2.8 05:40:54 10° NW 05:46:06 37° WSW 05:51:18 10° S
Cosmos 1408 3.9 05:43:54 12° NW 05:46:09 19° W 05:48:44 10° SW
Cosmos 1741 Rocket 4.1 05:42:03 10° NNW 05:47:15 57° WSW 05:52:23 10° S
Cosmos 2360 Rocket 3.4 05:45:53 10° NW 05:50:06 22° W 05:54:19 10° SSW
Cosmos 2219 Rocket 2.5 05:47:18 10° NW 05:52:43 48° WSW 05:58:06 10° S
USA 308 3.0 05:49:26 10° SW 05:53:20 69° SE 05:57:16 10° NE
Cosmos 2237 Rocket 3.6 05:48:44 10° N 05:54:04 39° ENE 05:59:20 10° SE
Cosmos 1331 Rocket 4.4 05:52:50 10° SW 05:57:43 39° WNW 06:02:37 10° N
Cosmos 1302 Rocket 4.0 05:53:10 10° SSW 05:58:21 83° WNW 06:03:36 10° NNE
USA 229 DEB 4.2 05:53:30 10° WSW 05:59:10 35° NW 06:05:17 10° NNE
USA 229 4.2 05:53:33 10° WSW 05:59:15 35° NW 06:05:24 10° NNE
Cosmos 2322 Rocket 3.9 05:57:51 10° W 05:59:23 11° W 06:00:55 10° WSW
COSMOS 2428 2.7 05:55:55 10° NNW 06:01:35 69° WSW 06:07:13 10° SSE
ATLAS CENTAUR R/B 2.7 05:53:23 10° SW 06:02:06 78° NW 06:06:04 10° NE
Cosmos 1633 2.7 05:59:07 10° NNW 06:02:20 44° W 06:05:34 10° SSW
CZ-4B R/B 4.3 05:58:13 10° N 06:02:47 31° WNW 06:07:24 10° SW
Cosmos 1174 4.4 06:02:09 10° WNW 06:04:40 23° WSW 06:07:07 10° SSW
SL-24 R/B - RUBIN 2 4.2 06:03:26 10° NNW 06:08:51 85° WSW 06:14:54 10° SSE
CENTAUR R/B 4.5 06:05:51 10° NNW 06:13:21 37° NE 06:21:34 10° ESE
